Location: Unspecified
(44.0704°N, 88.6889°W)
Time: 12:28:00
(UTC+02:00)

Transit 2A - Pass Details

Date: 20 June 2019
Orbit: 594 x 965 km, 66.7° (Epoch: 16 July)

Event Time Altitude Azimuth Distance (km) Brightness Sun altitude
Rises 17:17:27 0° 328° (NNW) 3,463 9.1 51.6°
Reaches altitude 10° 17:20:03 10° 329° (NNW) 2,467 8.4 52.0°
Maximum altitude 17:25:44 84° 58° (ENE) 787 7.2 53.0°
Drops below altitude 10° 17:30:47 10° 147° (SSE) 2,199 9.0 53.8°
Sets 17:33:00 0° 148° (SSE) 3,060 9.5 54.2°
